Dewpoint
2 1 3 3 3 3 3 3 3 4 4 3 1 -0 -2 -2 -3 -5 -7 -2 -2 -5 -8 -8 -8 -9 -9 -9 -8 0 5 5 7 8 7 8 10 8 7 7 9 9 9
-1 -1 -2 0 3 4 3 3 4 4 4 5 4 2 1 -0 -2 -1 -1 0 -1 -3 -6 -8 -9 -9 -9 -9 -9 -9 -2 5 5 7 9 10 9 10 8 8 8 9 9
-0 -2 -1 3 4 4 4 3 4 4 3 4 4 3 3 1 -0 -1 -2 -2 -2 -2 -3 -6 -9 -10 -9 -9 -9 -9 -8 -1 6 6 7 9 8 7 9 9 9 10 9
4 3 3 2 3 4 2 4 4 4 4 4 3 3 3 3 1 -0 -0 -0 -1 -2 -2 -3 -6 -8 -9 -8 -8 -8 -9 -9 0 5 6 7 9 7 9 9 9 10 9
3 3 1 0 -0 2 2 4 4 5 6 5 4 4 2 2 3 1 -0 -0 -0 -1 -0 -2 -2 -3 -8 -8 -8 -8 -8 -9 -10 -8 3 6 6 7 8 10 10 9 10
4 0 0 -0 1 2 2 3 3 3 1 0 2 3 3 2 3 2 2 -0 -0 -0 -1 -1 -1 -1 -3 -5 -7 -8 -9 -9 -9 -9 -10 -3 6 6 6 7 7 7 9
1 0 0 0 0 0 0 -0 -1 -2 -1 0 1 2 2 2 3 4 4 2 0 -0 -0 -1 -2 -2 -1 -3 -5 -7 -8 -9 -10 -10 -9 -9 -7 0 6 6 7 6 10
1 2 -0 -2 -1 -1 -1 -1 0 0 -0 -2 -1 0 1 1 1 1 1 2 2 1 0 -0 -1 -1 -0 -1 -1 -4 -8 -9 -10 -11 -11 -10 -9 -7 -5 1 5 7 7
2 -1 -2 -2 -2 -2 -3 -7 -5 -3 -1 -0 -0 0 1 1 1 0 0 1 1 2 3 3 3 -0 -0 0 -2 -3 -5 -7 -9 -10 -11 -12 -11 -10 -8 -5 -2 0 4
-2 -2 -3 -3 -3 -2 -3 -2 -1 -1 -2 -1 -0 0 1 1 2 1 1 1 1 2 2 3 3 3 1 1 -1 -3 -3 -5 -6 -7 -7 -8 -9 -11 -10 -8 -5 -2 -0
-2 -3 -3 -3 -3 -3 -4 -1 -1 -1 -1 -0 1 1 -0 -3 -4 -1 -1 -1 -1 0 1 3 4 4 2 -1 0 -2 -2 -2 -4 -5 -6 -7 -8 -9 -12 -10 -8 -7 -3
-3 -4 -4 -4 -3 -2 -2 -2 -1 0 -0 -1 -1 -2 -2 -2 -2 -1 -2 -5 -2 -3 -3 0 3 2 2 1 0 -1 -2 -3 -4 -4 -7 -7 -7 -8 -11 -12 -10 -8 -8
-2 -3 -3 -3 -2 -2 -2 -1 -2 -2 -2 -2 -2 -2 -1 -3 -3 -3 -2 -2 -2 -2 -4 -4 -1 1 1 1 1 0 1 -2 -3 -4 -5 -8 -9 -10 -11 -12 -12 -8 -10
-3 -3 -3 -3 -2 -2 -3 -3 -3 -3 -2 -3 -2 -2 -3 -4 -4 -4 -4 -4 -4 -5 -5 -3 -3 -2 -0 0 0 -0 0 -1 -4 -4 -5 -8 -6 -8 -8 -11 -12 -11 -7
-2 -2 -3 -4 -2 -3 -3 -3 -3 -2 -3 -3 -2 -3 -4 -4 -6 -5 -5 -4 -3 -3 -4 -6 -3 -3 -3 -1 -1 -1 -1 -2 -3 -4 -5 -7 -3 -3 -5 -5 -7 -7 -5
-3 -5 -2 -3 -2 -2 -2 -2 -3 -3 -4 -4 -3 -3 -3 -3 -3 -3 -4 -5 -6 -5 -5 -6 -6 -7 -6 -5 -2 -2 -2 -3 -4 -3 -4 -5 -6 -5 -4 -5 -5 -4 -4
-7 -6 -6 -6 -5 -5 -5 -6 -6 -7 -6 -7 -6 -5 -4 -4 -4 -4 -4 -5 -7 -8 -8 -8 -9 -9 -10 -9 -7 -6 -4 -5 -6 -6 -7 -7 -8 -8 -7 -5 -5 -5 -5
-4 -4 -5 -6 -7 -8 -8 -8 -8 -8 -8 -6 -5 -6 -7 -7 -8 -8 -7 -7 -8 -9 -9 -10 -9 -10 -11 -11 -11 -10 -9 -7 -7 -6 -7 -7 -8 -8 -9 -9 -10 -7 -5
-7 -8 -9 -10 -11 -11 -11 -11 -11 -10 -9 -9 -11 -12 -9 -9 -9 -9 -11 -10 -9 -9 -9 -9 -9 -10 -11 -11 -12 -12 -11 -10 -9 -9 -8 -9 -8 -8 -8 -9 -10 -11 -13
-10 -11 -12 -12 -11 -11 -11 -10 -11 -11 -11 -12 -14 -16 -12 -11 -9 -8 -7 -8 -9 -9 -9 -9 -10 -11 -11 -11 -12 -13 -13 -12 -12 -10 -10 -10 -9 -9 -9 -9 -10 -11 -12
-12 -12 -12 -11 -11 -11 -10 -11 -11 -10 -10 -11 -12 -13 -14 -12 -11 -11 -10 -8 -8 -10 -12 -13 -12 -11 -10 -10 -10 -8 -8 -8 -8 -8 -8 -9 -9 -8 -7 -8 -9 -9 -10
-11 -12 -11 -11 -11 -10 -9 -10 -9 -9 -9 -10 -11 -13 -13 -11 -11 -10 -9 -9 -10 -11 -12 -11 -11 -10 -10 -10 -9 -9 -8 -8 -8 -9 -8 -9 -9 -8 -7 -7 -5 -5 -5
-12 -12 -11 -10 -10 -9 -9 -9 -9 -9 -11 -12 -13 -12 -11 -10 -10 -9 -9 -9 -9 -9 -9 -9 -9 -10 -11 -12 -11 -10 -10 -9 -8 -7 -8 -8 -9 -8 -9 -10 -7 -6 -6
-12 -11 -10 -9 -9 -9 -9 -11 -11 -11 -12 -14 -13 -13 -13 -11 -10 -10 -9 -10 -10 -11 -10 -10 -10 -11 -9 -9 -10 -10 -9 -9 -9 -9 -8 -8 -9 -10 -10 -11 -9 -9 -9
-11 -10 -9 -9 -9 -10 -11 -10 -10 -11 -11 -14 -14 -12 -11 -12 -13 -12 -11 -12 -13 -13 -13 -12 -11 -10 -9 -10 -10 -10 -10 -10 -9 -9 -10 -10 -10 -10 -10 -11 -12 -12 -12
-10 -9 -10 -10 -11 -12 -9 -9 -10 -11 -12 -13 -13 -13 -14 -12 -11 -11 -10 -10 -10 -10 -10 -11 -10 -11 -11 -11 -9 -8 -9 -9 -11 -11 -12 -10 -8 -8 -7 -10 -11 -12 -12
Wind_Speed
7 8 10 10 10 11 12 13 16 15 16 18 19 22 21 17 17 15 16 18 21 20 16 15 14 14 15 16 17 18 20 20 23 23 24 33 28 26 26 26 27 26 25
9 11 13 13 12 12 14 19 19 20 22 23 20 18 23 23 21 18 20 19 23 21 20 19 19 19 19 21 21 21 21 22 23 21 20 24 30 28 28 27 29 29 27
9 12 14 12 11 14 19 20 18 21 22 23 24 23 23 25 27 25 23 23 24 25 24 22 22 21 20 20 22 22 23 23 24 23 23 22 29 36 29 30 31 31 29
12 14 14 16 17 19 23 22 24 23 24 25 27 28 29 29 30 29 27 26 25 27 28 26 22 22 21 19 21 22 22 24 24 24 25 26 26 33 37 33 33 32 32
10 14 17 20 24 25 24 24 26 26 25 25 28 30 30 29 29 30 30 30 30 26 27 28 27 24 23 21 20 22 23 23 24 24 24 26 27 27 29 32 31 35 34
12 18 21 20 20 24 24 24 26 28 31 32 32 31 33 35 35 35 33 35 34 34 31 33 29 29 29 27 26 25 25 25 24 24 25 24 25 26 26 32 38 37 40
18 25 25 21 22 23 23 24 28 29 29 28 31 33 34 33 32 32 36 38 40 40 40 39 43 35 31 29 28 26 26 25 25 24 24 25 26 26 24 27 30 36 32
23 38 32 25 20 23 24 23 22 26 27 27 29 33 36 37 32 30 31 34 41 44 46 44 41 41 32 30 29 28 27 24 24 24 22 23 24 27 26 24 27 30 32
38 22 20 22 24 27 28 25 25 26 28 28 24 25 31 31 32 32 32 34 36 33 35 36 36 43 39 32 26 26 28 23 22 21 20 19 21 24 27 25 24 25 28
19 16 18 21 23 26 27 24 24 26 28 28 27 20 21 22 19 27 27 25 26 31 28 34 36 32 41 39 32 22 25 29 26 22 20 18 18 19 24 25 23 22 24
16 21 22 24 25 29 29 24 25 24 23 23 22 23 26 32 34 27 29 29 30 26 26 24 21 27 25 19 37 26 26 24 25 22 20 18 18 19 21 23 24 22 21
24 22 23 25 25 22 23 24 23 22 23 24 26 27 26 25 24 19 25 40 34 39 33 31 28 23 25 16 17 25 21 27 29 26 22 19 19 21 21 21 22 23 22
18 22 22 24 23 22 21 24 26 24 27 26 26 27 25 24 27 22 18 25 25 33 33 33 28 20 27 28 26 16 26 23 23 24 23 26 24 22 22 21 21 21 21
22 20 19 20 19 23 25 25 23 24 23 26 21 18 25 28 22 20 18 19 24 23 21 24 21 21 18 17 18 12 16 19 19 23 26 25 24 22 21 21 20 20 21
16 19 26 27 25 28 29 28 25 25 28 26 26 28 22 19 18 19 18 19 19 21 24 19 19 18 20 18 19 8 18 15 17 19 22 23 25 22 22 21 21 20 21
26 25 22 26 22 22 20 25 29 28 26 22 23 24 22 19 20 20 20 21 22 24 30 25 23 20 15 21 18 14 16 17 13 15 17 19 21 24 24 23 23 23 22
29 24 25 27 26 24 24 25 26 25 22 23 22 22 24 23 23 22 22 22 23 23 27 27 22 22 20 19 15 19 21 16 18 20 21 21 22 26 30 28 26 26 25
19 20 23 23 24 23 24 25 26 24 26 22 22 23 26 27 29 27 23 22 23 23 25 30 26 25 26 25 22 20 15 16 19 21 20 19 23 22 24 25 30 34 31
21 22 23 24 23 23 23 23 23 19 19 20 22 26 26 27 27 28 27 26 24 22 21 23 25 24 23 23 24 23 21 19 19 20 22 23 22 23 24 28 29 29 34
22 23 22 22 23 24 25 23 22 24 28 32 36 31 32 27 27 28 26 23 24 26 26 25 26 23 22 22 24 27 29 28 27 22 21 21 21 23 24 25 26 28 30
21 21 23 24 25 25 23 24 28 31 32 34 36 37 31 28 29 27 26 28 25 27 33 35 34 28 23 22 22 18 18 16 16 15 17 23 23 18 16 23 27 27 26
20 24 24 25 24 21 24 29 34 34 35 36 39 41 29 25 27 27 22 25 24 26 27 27 28 27 28 26 26 21 19 17 17 20 18 21 25 27 23 19 19 21 30
23 24 26 23 21 20 23 32 35 36 37 38 36 28 29 27 27 25 23 23 24 23 25 29 28 28 31 31 33 33 30 23 21 19 22 23 24 26 27 31 27 25 27
23 25 21 21 22 27 30 33 34 32 34 34 28 27 27 27 26 25 24 24 23 24 27 26 27 29 26 22 23 24 25 27 29 27 22 26 27 29 29 30 28 28 28
23 20 22 25 29 34 32 30 28 33 30 32 27 24 24 27 27 23 23 25 25 25 22 22 25 28 27 27 28 30 31 29 28 24 23 25 27 30 30 32 32 32 30
20 26 30 30 34 29 25 25 29 27 29 32 28 28 27 24 27 25 24 24 25 23 19 24 25 25 27 27 22 23 29 32 32 31 31 27 24 22 25 27 27 25 25
Wind_Direction
347 0 357 353 336 335 321 307 304 307 300 302 310 308 314 306 301 295 263 269 275 282 273 269 266 268 268 265 264 262 260 256 250 247 236 243 235 231 229 226 226 225 226
348 349 337 337 333 317 306 305 318 316 316 311 313 297 297 304 298 274 278 269 276 277 276 266 266 265 265 268 265 261 257 254 255 252 244 232 240 233 228 226 229 226 226
321 325 328 330 309 299 293 307 306 302 302 300 296 296 293 293 294 293 282 270 266 272 275 271 264 259 261 262 263 258 256 253 248 245 244 240 243 244 239 232 228 228 225
317 314 311 306 305 295 301 297 295 299 296 296 295 293 292 286 283 282 281 277 269 264 267 272 255 257 252 255 261 263 257 252 250 245 242 241 234 229 239 230 231 232 227
295 279 312 316 312 304 305 300 299 300 298 292 292 288 287 290 289 280 272 273 272 261 260 262 262 257 245 252 255 259 261 258 254 250 245 243 240 239 242 233 230 232 232
298 321 316 314 302 298 297 297 293 290 291 296 296 294 291 291 287 281 276 272 265 267 259 254 251 243 240 250 255 253 253 257 257 254 252 247 246 242 239 233 239 244 241
295 316 322 303 294 293 297 292 292 299 300 299 299 295 292 287 285 286 283 271 264 264 257 255 251 246 248 250 243 243 248 249 254 252 249 250 249 248 243 238 234 233 247
320 316 310 307 305 291 289 298 303 299 295 294 298 297 299 294 289 287 284 285 272 265 260 253 245 245 241 240 238 239 240 245 249 256 256 249 246 251 249 243 242 240 239
310 307 298 303 301 297 302 307 298 295 294 283 283 301 309 300 301 290 284 282 277 286 270 249 257 241 238 235 226 233 235 238 243 249 256 260 251 246 254 250 248 246 243
309 296 302 307 305 304 303 306 293 287 289 294 291 282 275 298 326 312 292 284 283 291 298 267 249 256 237 227 225 233 236 238 244 238 248 258 259 253 249 254 250 248 246
288 298 298 292 294 297 302 303 301 291 286 284 287 291 290 297 299 318 311 296 282 279 285 266 259 244 224 218 221 231 246 239 235 250 241 245 261 261 253 252 257 253 249
301 302 298 302 300 301 298 297 295 291 289 292 293 293 297 309 303 307 304 301 304 297 286 290 269 265 228 227 235 233 244 240 242 247 242 254 253 256 255 250 250 257 256
322 313 316 311 312 305 293 289 289 303 299 299 296 295 291 297 299 296 290 293 297 299 299 288 281 276 251 239 242 279 240 253 239 243 248 255 249 249 252 250 248 248 253
312 322 306 307 303 291 292 287 286 282 284 289 288 286 296 299 291 293 298 306 312 310 309 302 306 307 277 261 252 255 249 236 243 250 257 248 250 250 254 253 249 247 246
300 297 302 299 297 295 294 293 291 289 290 286 290 294 294 291 297 294 297 290 284 290 301 312 303 313 316 282 263 264 270 258 245 250 254 250 251 252 252 253 254 249 247
301 313 307 306 313 311 304 303 301 300 298 300 297 290 283 274 272 280 286 287 285 284 287 295 300 301 304 292 284 296 265 258 259 246 245 248 254 253 251 248 249 249 248
317 315 320 326 325 322 322 321 322 321 315 306 300 302 295 295 297 290 290 280 285 283 283 291 291 288 290 286 289 276 266 266 264 261 264 264 263 261 258 252 247 244 244
322 317 318 319 321 323 322 320 319 317 313 311 308 303 299 299 296 294 300 296 289 288 287 288 290 291 285 287 283 279 278 262 260 268 272 273 265 267 267 265 258 251 247
320 317 315 315 315 315 313 312 310 308 293 293 302 303 310 296 291 288 287 283 286 291 286 294 292 287 286 284 285 280 278 275 268 264 260 268 271 260 250 262 267 265 260
314 315 317 317 316 314 313 304 302 299 301 301 303 297 289 297 301 291 285 279 275 276 280 286 290 293 289 286 285 285 280 273 271 268 262 265 276 270 267 265 266 268 270
315 313 313 312 314 317 304 308 306 305 306 305 303 304 297 285 286 294 294 284 282 278 280 284 281 280 284 285 282 285 283 276 265 262 258 252 258 260 280 269 267 267 270
315 315 311 310 310 312 307 307 303 306 307 308 306 305 301 296 291 293 290 290 287 287 285 280 276 274 273 270 271 283 284 283 288 251 260 262 263 260 252 259 275 257 255
314 314 313 313 305 303 306 304 306 312 315 314 308 298 296 296 292 297 294 280 277 275 271 266 268 276 278 272 268 271 272 277 280 275 268 269 261 261 262 260 254 260 268
314 315 314 309 305 300 298 309 307 309 313 321 311 301 295 295 295 291 296 293 284 277 277 281 283 280 280 280 272 267 270 273 271 268 266 267 262 262 262 263 262 258 266
319 309 311 305 308 316 322 315 313 313 317 322 319 314 309 305 299 295 287 286 287 284 282 278 271 270 269 270 269 272 273 271 270 269 262 264 265 269 271 267 266 270 273
317 314 314 315 322 323 320 314 309 315 320 322 316 313 311 309 299 296 286 280 278 286 279 277 273 273 273 272 266 260 263 262 264 269 261 262 268 268 274 271 269 273 270
Height
1558 1557 1557 1557 1557 1556 1554 1553 1551 1550 1548 1545 1543 1539 1539 1537 1536 1535 1534 1533 1533 1532 1531 1530 1529 1529 1529 1529 1529 1530 1530 1531 1532 1535 1537 1540 1543 1545 1547 1549 1552 1555 1558
1558 1556 1556 1555 1555 1554 1552 1550 1548 1546 1544 1541 1540 1538 1535 1534 1534 1533 1532 1530 1529 1528 1527 1527 1526 1525 1525 1525 1525 1525 1525 1526 1527 1529 1531 1535 1538 1539 1541 1544 1547 1550 1553
1557 1555 1554 1553 1553 1552 1549 1547 1545 1543 1541 1539 1536 1534 1532 1530 1527 1528 1528 1527 1525 1525 1524 1523 1522 1521 1521 1521 1521 1521 1521 1521 1522 1524 1525 1528 1531 1533 1535 1539 1542 1545 1548
1554 1552 1552 1552 1551 1549 1546 1544 1541 1539 1537 1536 1534 1532 1529 1526 1522 1520 1519 1519 1520 1519 1519 1519 1518 1517 1517 1516 1516 1516 1516 1517 1517 1518 1520 1522 1524 1526 1529 1533 1536 1539 1542
1553 1550 1550 1550 1548 1545 1543 1541 1539 1536 1532 1530 1529 1527 1525 1523 1521 1518 1515 1513 1511 1513 1512 1512 1512 1512 1512 1511 1512 1512 1511 1512 1512 1513 1513 1515 1518 1521 1524 1524 1527 1532 1536
1551 1550 1548 1546 1544 1542 1539 1537 1534 1532 1528 1525 1522 1519 1518 1516 1515 1514 1512 1510 1507 1506 1507 1504 1505 1505 1505 1505 1506 1507 1506 1506 1507 1507 1509 1510 1511 1514 1517 1519 1522 1524 1528
1549 1548 1546 1543 1539 1537 1535 1531 1528 1526 1522 1520 1517 1513 1511 1510 1509 1507 1506 1503 1501 1500 1497 1497 1494 1496 1497 1498 1499 1500 1500 1501 1501 1502 1503 1505 1506 1507 1511 1514 1515 1518 1521
1546 1544 1543 1539 1536 1531 1529 1527 1524 1520 1517 1517 1514 1510 1503 1501 1501 1501 1500 1497 1495 1493 1490 1487 1489 1489 1489 1490 1491 1493 1494 1495 1495 1496 1498 1499 1501 1502 1505 1508 1510 1513 1516
1540 1541 1538 1535 1531 1528 1524 1522 1520 1517 1511 1510 1509 1508 1501 1495 1492 1493 1491 1490 1489 1488 1485 1485 1486 1485 1484 1480 1482 1486 1488 1489 1490 1491 1492 1493 1496 1498 1499 1502 1504 1506 1509
1537 1535 1533 1530 1527 1523 1520 1518 1514 1511 1508 1503 1501 1499 1498 1495 1491 1482 1483 1481 1481 1481 1479 1480 1478 1478 1478 1475 1474 1478 1481 1484 1486 1485 1486 1488 1489 1492 1494 1495 1498 1501 1503
1531 1529 1528 1525 1521 1517 1515 1512 1508 1504 1501 1498 1496 1493 1492 1490 1489 1486 1476 1474 1473 1474 1471 1471 1468 1471 1469 1468 1465 1469 1476 1477 1480 1481 1480 1482 1484 1486 1488 1489 1492 1494 1497
1527 1525 1522 1519 1515 1512 1510 1507 1502 1498 1496 1493 1492 1491 1489 1487 1485 1483 1478 1471 1467 1465 1467 1463 1462 1464 1456 1463 1464 1466 1467 1471 1474 1476 1475 1477 1478 1481 1482 1484 1486 1488 1490
1523 1520 1517 1514 1511 1507 1504 1499 1496 1493 1491 1487 1487 1487 1485 1483 1480 1477 1475 1471 1464 1459 1458 1459 1459 1457 1456 1453 1460 1459 1461 1465 1466 1470 1471 1472 1473 1474 1476 1478 1480 1483 1485
1519 1516 1513 1510 1505 1500 1497 1494 1491 1489 1487 1485 1483 1481 1479 1476 1475 1472 1469 1469 1462 1458 1455 1454 1453 1453 1452 1450 1451 1452 1457 1457 1461 1463 1464 1466 1468 1468 1471 1473 1475 1477 1480
1514 1511 1507 1504 1500 1495 1492 1488 1487 1485 1481 1480 1478 1476 1473 1472 1470 1468 1466 1465 1464 1457 1452 1452 1451 1450 1448 1447 1448 1446 1452 1454 1455 1459 1460 1460 1464 1464 1466 1468 1470 1472 1474
1508 1505 1502 1498 1495 1491 1488 1484 1482 1480 1477 1475 1473 1471 1469 1467 1465 1465 1464 1462 1460 1457 1450 1451 1450 1450 1450 1449 1446 1447 1449 1452 1452 1454 1457 1456 1459 1460 1462 1463 1465 1467 1468
1504 1501 1498 1494 1491 1488 1485 1481 1479 1476 1473 1471 1470 1467 1465 1463 1461 1459 1458 1457 1456 1454 1450 1447 1448 1447 1446 1448 1447 1446 1444 1448 1450 1451 1451 1452 1454 1455 1457 1458 1460 1461 1462
1500 1498 1495 1492 1489 1486 1483 1479 1475 1472 1470 1467 1466 1464 1462 1460 1458 1456 1454 1453 1451 1449 1447 1443 1442 1441 1440 1441 1440 1441 1443 1444 1445 1444 1445 1447 1449 1450 1451 1452 1453 1455 1456
1498 1494 1491 1489 1486 1483 1480 1477 1473 1470 1466 1463 1461 1459 1457 1455 1452 1450 1448 1446 1445 1443 1441 1439 1437 1437 1435 1435 1434 1435 1437 1438 1438 1440 1442 1442 1443 1445 1445 1447 1447 1448 1449
1495 1491 1489 1486 1483 1480 1476 1471 1468 1464 1461 1458 1455 1453 1451 1449 1447 1444 1441 1440 1438 1436 1436 1434 1431 1431 1432 1432 1432 1431 1431 1432 1433 1434 1435 1437 1437 1438 1439 1440 1442 1442 1443
1491 1488 1485 1482 1479 1476 1470 1466 1462 1459 1455 1451 1448 1446 1443 1441 1438 1437 1435 1433 1431 1430 1430 1429 1427 1427 1427 1428 1429 1427 1426 1426 1426 1428 1428 1428 1430 1431 1432 1434 1435 1436 1436
1487 1484 1481 1478 1475 1471 1466 1461 1456 1453 1450 1445 1440 1437 1435 1433 1431 1430 1427 1425 1425 1424 1423 1422 1421 1422 1421 1421 1420 1420 1420 1420 1421 1422 1422 1422 1424 1424 1426 1429 1428 1428 1428
1483 1480 1477 1473 1470 1466 1461 1455 1451 1447 1443 1439 1434 1430 1427 1425 1423 1422 1419 1417 1417 1416 1416 1416 1415 1415 1414 1415 1415 1414 1414 1415 1415 1416 1417 1416 1419 1418 1420 1421 1422 1421 1420
1478 1475 1472 1469 1465 1461 1456 1452 1445 1442 1438 1433 1429 1425 1421 1418 1417 1415 1412 1410 1410 1410 1410 1409 1409 1407 1408 1408 1409 1408 1408 1407 1407 1409 1412 1410 1413 1411 1413 1413 1414 1414 1414
1474 1470 1467 1464 1459 1454 1450 1445 1440 1436 1431 1427 1423 1420 1416 1413 1410 1408 1406 1404 1403 1402 1402 1402 1402 1401 1401 1402 1402 1402 1401 1402 1401 1402 1404 1405 1405 1405 1405 1405 1406 1406 1407
1469 1465 1462 1458 1454 1450 1445 1441 1436 1431 1427 1422 1418 1414 1411 1408 1404 1402 1400 1399 1397 1396 1396 1395 1394 1394 1394 1393 1394 1393 1394 1394 1395 1394 1396 1400 1399 1401 1398 1397 1398 1399 1399